Vertical_Velocity
1 0 -2 -3 -3 -5 -8 -7 -4 -0 4 5 2 2 1 -0 -9 -2 5 2 7 1 1 3 6 10 9 1 2 3 -3 3 1 -10 1 -6 -5 -0 -4 0 -1 -0 -0
-3 2 4 2 -2 -2 2 3 0 3 5 -0 2 -0 -2 -1 -2 15 3 1 -2 -1 -1 -2 -1 -1 1 2 2 -1 0 0 2 -2 -5 -1 -4 -2 2 -1 -4 -0 -1
-3 -2 -2 -4 -4 -3 -3 2 3 4 7 5 2 1 2 -1 -4 3 5 1 -0 1 1 0 0 1 1 -1 -1 -2 -2 -1 0 4 -11 -1 -3 -6 -3 1 -2 -4 -6
-3 -3 -2 -5 -4 -2 3 1 1 2 3 1 -1 -4 -4 -2 -3 -4 -1 -0 -0 -1 0 0 1 1 0 -2 -2 -2 -3 -2 0 0 -2 -4 2 -2 1 -1 -3 1 -5
-5 -1 3 3 -2 2 -4 -4 -2 -1 1 1 -1 1 3 4 5 3 0 -1 -2 -4 -1 2 2 2 2 3 2 -2 2 0 1 1 -3 -3 -4 -2 -3 -4 3 0 -2
2 5 -2 -2 6 2 3 2 1 1 1 0 -0 -0 -1 -0 -2 -1 -0 -3 -3 -1 -3 -5 -2 -4 -2 -3 -1 0 -2 -1 0 3 -2 -2 -3 1 2 -1 1 1 -6
0 -3 -3 0 -1 -1 -1 -1 -2 -1 -1 -1 -1 -2 -1 1 -1 -2 -2 -2 -2 -0 -0 -0 -3 -1 0 1 0 -1 -1 0 1 -1 -2 -5 1 1 7 5 -4 -0 -3
0 -0 2 1 -1 -0 -1 -2 -0 -1 -1 -3 -1 -0 -2 0 -1 -1 -1 0 0 0 -2 -1 -0 -2 1 -1 -1 -0 -1 1 3 3 3 -5 -1 -0 2 -0 0 1 -0
2 1 2 -1 -1 -0 -3 -2 -2 -1 0 -1 -0 -1 -1 -0 -1 -0 -2 -2 0 -2 -1 -0 -0 -1 -1 4 1 1 3 -2 3 -3 -1 -3 -1 1 -0 8 -2 10 -6
0 0 -1 1 0 -2 -3 -2 -1 -1 -1 -1 -1 0 0 -2 -1 -1 -1 -3 -3 -1 0 -0 -0 1 1 1 3 1 -0 -3 0 3 5 3 -1 -2 2 5 5 6 1
-2 2 1 0 -2 -2 -3 -1 -1 -0 -1 0 -0 -1 -0 0 1 1 1 0 0 -2 -0 -2 -0 2 3 0 2 0 -0 -1 -2 1 0 -0 0 -2 -1 0 -0 5 3
0 1 0 -1 -1 -2 -2 -1 0 -1 -1 -1 -3 1 1 -2 -3 0 1 2 1 4 -2 3 6 1 -0 -1 -1 0 1 1 1 0 1 -2 -0 -0 -2 -1 -1 -1 1
0 2 0 -0 -2 -1 -1 0 -1 0 0 -2 -1 -2 -1 -2 -2 -1 -1 -1 -0 -0 7 0 -1 0 -0 -0 1 0 -0 -1 1 1 1 1 3 2 3 3 3 5 3
2 2 1 -0 -2 -0 0 0 1 1 1 -1 -1 -2 -2 -2 -1 -1 -0 -3 -1 3 -0 0 1 1 -0 1 1 1 -1 2 0 0 -0 1 0 2 1 2 2 2 4
3 3 0 1 -0 -1 1 1 1 1 2 -2 -0 -1 -1 -2 -2 3 1 -1 2 0 2 2 0 -2 -0 -2 -2 0 1 0 2 3 1 1 2 0 0 0 0 2 1
2 1 2 1 -0 1 0 1 2 1 2 -0 1 2 -1 1 2 0 -0 1 -0 0 3 1 0 -0 -0 -6 1 -0 1 1 2 -0 2 1 2 3 2 -0 -0 -1 2
1 1 1 -0 1 1 0 0 0 -0 2 2 -1 -0 -0 0 0 -1 -0 0 1 4 1 0 1 -1 -2 -1 2 -1 -1 1 1 0 0 -0 2 3 2 1 1 1 -0
0 1 -0 0 0 0 -0 -1 -0 -1 -3 -3 1 1 0 -0 -0 -1 -1 3 1 1 -0 1 0 -1 -1 1 1 -0 0 2 0 -1 -0 0 0 1 2 2 2 1 2
-1 1 -0 -0 -0 0 -0 0 0 1 0 0 -1 1 -0 1 -0 -0 -0 -2 -1 -0 1 2 1 0 1 1 1 -0 -1 2 -0 -1 -0 0 -1 -0 2 2 1 1 1
0 1 1 -1 -0 0 0 1 1 1 -1 -1 -1 -1 -2 -2 -2 -1 -1 -0 1 1 1 1 1 1 0 0 -0 -0 -0 -0 1 -1 -2 0 1 -2 -0 1 1 1 0
-1 1 1 -1 -0 -0 -0 2 1 -0 -1 -1 -1 -1 -1 -1 -1 -0 -0 -0 -0 -1 -0 -0 -0 0 1 1 1 -0 0 1 1 -1 -1 -0 1 -1 -2 1 2 1 -0
-1 -0 -0 -1 0 -1 0 1 1 0 -0 -0 -1 -1 -1 -0 0 0 1 0 0 1 1 -0 -1 -1 -0 -1 1 1 1 1 0 -0 -1 1 1 -1 -2 1 1 1 2
-1 -0 -0 -2 0 -0 0 0 0 -0 -0 -0 -0 -1 -0 -0 -0 0 -1 0 0 1 1 0 1 1 1 0 1 1 1 -1 -0 -1 -1 -1 2 -1 -1 -1 1 -0 0
-1 -1 0 0 -0 -1 0 -0 0 -1 -1 0 -0 -1 -1 -1 -1 0 -1 -0 0 0 1 1 0 1 1 1 -0 -1 -0 -1 0 1 -0 1 0 0 -1 -1 -1 1 -1
-1 -0 0 0 -0 -1 0 0 -0 -0 -1 -0 1 -0 -1 -1 -2 -0 -0 0 -2 0 1 0 1 1 1 1 1 1 0 1 -0 1 1 -0 -1 -0 -0 -0 -0 0 0
-2 0 -0 -0 -0 -0 -1 0 0 -1 -0 -0 0 0 -0 0 -1 -1 -1 -0 -2 -1 0 1 1 1 2 2 1 1 1 0 1 1 -1 -1 1 -0 -1 -1 -1 -0 -0
Height
1515 1511 1507 1501 1494 1488 1481 1476 1474 1472 1470 1469 1467 1465 1462 1460 1456 1458 1457 1455 1454 1452 1451 1450 1449 1447 1444 1443 1445 1444 1442 1443 1440 1437 1439 1440 1439 1438 1437 1436 1435 1435 1435
1510 1505 1500 1495 1490 1485 1479 1473 1470 1470 1468 1466 1464 1461 1459 1456 1457 1455 1453 1451 1450 1448 1447 1445 1443 1441 1440 1439 1437 1436 1435 1435 1434 1432 1432 1432 1430 1429 1428 1427 1427 1426 1426
1505 1501 1496 1491 1486 1481 1477 1475 1471 1470 1465 1462 1459 1457 1455 1453 1451 1450 1449 1447 1445 1443 1441 1438 1437 1435 1433 1432 1430 1429 1428 1427 1426 1425 1422 1422 1421 1420 1418 1418 1417 1417 1416
1499 1493 1488 1485 1484 1479 1474 1473 1471 1468 1463 1459 1455 1453 1451 1449 1447 1445 1443 1441 1439 1437 1434 1432 1430 1428 1426 1424 1422 1420 1419 1417 1416 1414 1412 1410 1410 1410 1408 1408 1406 1407 1405
1495 1491 1486 1481 1478 1476 1472 1471 1469 1466 1461 1456 1452 1449 1447 1444 1442 1439 1437 1434 1432 1430 1428 1425 1422 1419 1417 1415 1412 1411 1410 1409 1407 1405 1403 1401 1400 1399 1398 1399 1396 1396 1394
1491 1486 1482 1480 1477 1473 1470 1467 1465 1461 1457 1453 1449 1446 1443 1440 1437 1434 1432 1429 1426 1423 1419 1415 1412 1409 1406 1404 1402 1400 1400 1398 1397 1395 1393 1391 1391 1391 1391 1390 1389 1388 1385
1486 1483 1480 1477 1474 1470 1467 1463 1461 1457 1452 1448 1445 1441 1438 1435 1432 1429 1426 1422 1418 1414 1410 1407 1404 1401 1398 1396 1393 1391 1389 1387 1386 1386 1383 1382 1381 1382 1382 1381 1380 1380 1379
1484 1482 1478 1474 1471 1467 1463 1460 1456 1452 1448 1444 1440 1436 1433 1430 1426 1422 1418 1414 1409 1406 1402 1399 1396 1393 1391 1388 1386 1384 1382 1380 1378 1376 1373 1372 1372 1372 1372 1372 1373 1372 1372
1480 1478 1475 1471 1467 1463 1459 1456 1452 1448 1444 1440 1435 1432 1428 1424 1420 1415 1411 1406 1402 1398 1395 1392 1390 1387 1384 1382 1379 1376 1373 1370 1369 1366 1364 1363 1363 1362 1363 1364 1363 1364 1363
1477 1474 1471 1468 1464 1460 1456 1453 1448 1444 1439 1435 1431 1427 1423 1418 1414 1409 1404 1401 1396 1392 1389 1386 1383 1380 1378 1376 1373 1369 1364 1362 1360 1358 1356 1355 1354 1353 1353 1353 1355 1355 1356
1472 1469 1467 1464 1461 1457 1453 1449 1444 1440 1435 1431 1427 1423 1418 1413 1408 1403 1399 1395 1392 1388 1384 1381 1377 1374 1371 1368 1364 1360 1356 1353 1351 1349 1348 1347 1346 1344 1344 1344 1345 1347 1349
1467 1465 1463 1460 1457 1454 1449 1445 1440 1436 1431 1426 1421 1417 1413 1407 1402 1398 1394 1391 1387 1383 1379 1376 1372 1368 1364 1360 1356 1353 1349 1346 1344 1342 1341 1339 1338 1338 1337 1337 1338 1340 1341
1462 1460 1458 1456 1453 1450 1445 1440 1436 1432 1427 1423 1418 1413 1409 1404 1399 1394 1390 1386 1382 1378 1375 1371 1367 1363 1358 1354 1351 1348 1346 1342 1340 1338 1336 1335 1333 1332 1331 1331 1331 1332 1333
1457 1456 1454 1452 1449 1446 1441 1436 1432 1429 1424 1420 1415 1410 1406 1401 1396 1391 1387 1382 1377 1374 1371 1367 1363 1359 1355 1351 1348 1346 1343 1340 1337 1335 1333 1331 1329 1327 1325 1325 1326 1327 1328
1453 1451 1450 1447 1445 1441 1437 1433 1429 1425 1421 1417 1413 1408 1403 1398 1394 1389 1384 1379 1375 1371 1368 1365 1361 1357 1354 1350 1347 1344 1341 1339 1335 1333 1331 1329 1327 1325 1323 1322 1323 1324 1325
1449 1447 1445 1443 1440 1437 1433 1429 1427 1423 1418 1414 1410 1405 1400 1396 1391 1386 1381 1376 1372 1369 1366 1363 1360 1357 1354 1351 1347 1343 1340 1338 1335 1332 1330 1328 1326 1324 1323 1322 1321 1322 1323
1445 1443 1441 1439 1436 1433 1429 1425 1421 1419 1415 1411 1407 1402 1397 1393 1388 1384 1379 1375 1371 1369 1366 1363 1361 1358 1355 1352 1348 1344 1341 1338 1335 1333 1331 1329 1326 1324 1322 1321 1321 1321 1322
1440 1439 1438 1435 1432 1430 1426 1423 1419 1415 1410 1407 1404 1399 1395 1390 1386 1382 1378 1375 1372 1369 1366 1364 1362 1359 1357 1353 1349 1346 1343 1339 1336 1333 1331 1329 1327 1325 1324 1322 1321 1321 1321
1437 1436 1435 1433 1430 1427 1424 1420 1417 1413 1408 1404 1400 1397 1393 1389 1385 1382 1379 1375 1372 1370 1368 1365 1363 1361 1358 1355 1351 1348 1345 1341 1338 1335 1332 1330 1328 1326 1325 1324 1323 1322 1321
1434 1433 1432 1430 1428 1425 1422 1418 1414 1411 1407 1403 1399 1395 1391 1388 1384 1381 1379 1376 1374 1371 1369 1366 1364 1362 1359 1356 1353 1350 1347 1343 1340 1337 1334 1331 1329 1328 1327 1325 1324 1323 1322
1432 1431 1430 1428 1426 1422 1420 1417 1413 1409 1406 1403 1399 1395 1392 1388 1385 1382 1379 1377 1374 1372 1370 1367 1365 1363 1360 1358 1355 1352 1349 1346 1342 1340 1337 1334 1331 1330 1329 1327 1326 1324 1323
1430 1429 1428 1426 1423 1421 1418 1415 1412 1408 1405 1402 1399 1395 1392 1389 1386 1383 1380 1378 1376 1373 1371 1368 1366 1364 1361 1359 1356 1354 1351 1348 1345 1342 1339 1337 1334 1332 1331 1329 1327 1326 1325
1428 1427 1426 1424 1422 1419 1417 1414 1410 1407 1404 1401 1398 1395 1392 1389 1386 1384 1382 1379 1377 1375 1372 1370 1367 1365 1363 1360 1358 1355 1353 1350 1347 1344 1342 1339 1337 1335 1333 1331 1329 1328 1326
1425 1424 1424 1422 1420 1417 1414 1412 1409 1406 1403 1400 1398 1395 1392 1390 1387 1385 1383 1381 1379 1376 1374 1372 1369 1367 1365 1362 1360 1357 1355 1352 1350 1347 1344 1342 1339 1337 1335 1334 1332 1330 1328
1422 1422 1421 1419 1417 1415 1412 1410 1407 1404 1402 1399 1397 1394 1391 1390 1388 1385 1384 1382 1379 1377 1375 1373 1371 1369 1366 1364 1362 1359 1356 1354 1351 1349 1346 1344 1341 1339 1337 1335 1333 1331 1329
1420 1419 1418 1417 1415 1412 1410 1407 1405 1403 1400 1398 1395 1393 1390 1388 1387 1385 1383 1382 1380 1378 1376 1374 1371 1369 1367 1365 1362 1360 1358 1355 1353 1350 1347 1345 1343 1341 1338 1336 1335 1333 1331